TimeEST,TemperatureF,Dew PointF,Humidity,Sea Level PressureIn,VisibilityMPH,Wind Direction,Wind SpeedMPH,Gust SpeedMPH,PrecipitationIn,Events,Conditions,WindDirDegrees,DateUTC
12:53 AM,73.0,59.0,61,30.17,10.0,East,18.4,23.0,N/A,,Mostly Cloudy,80,2012-11-30 05:53:00
1:53 AM,73.0,57.9,59,30.16,10.0,ENE,12.7,19.6,N/A,,Mostly Cloudy,70,2012-11-30 06:53:00
2:53 AM,73.0,60.1,64,30.14,10.0,ENE,15.0,-,N/A,,Mostly Cloudy,70,2012-11-30 07:53:00
3:53 AM,73.0,61.0,66,30.14,10.0,ENE,17.3,23.0,N/A,,Mostly Cloudy,70,2012-11-30 08:53:00
4:53 AM,73.0,61.0,66,30.14,10.0,ENE,12.7,-,N/A,,Mostly Cloudy,70,2012-11-30 09:53:00
5:53 AM,73.0,59.0,61,30.15,10.0,ENE,17.3,24.2,N/A,,Mostly Cloudy,70,2012-11-30 10:53:00
6:53 AM,73.0,59.0,61,30.16,10.0,ENE,18.4,25.3,N/A,,Scattered Clouds,70,2012-11-30 11:53:00
7:53 AM,73.9,60.1,62,30.17,10.0,ENE,19.6,26.5,N/A,,Mostly Cloudy,70,2012-11-30 12:53:00
8:53 AM,73.9,57.9,57,30.19,10.0,East,16.1,26.5,N/A,,Overcast,80,2012-11-30 13:53:00
9:53 AM,75.0,57.0,53,30.21,10.0,East,19.6,27.6,N/A,,Overcast,80,2012-11-30 14:53:00
10:53 AM,77.0,55.9,48,30.20,10.0,East,19.6,26.5,N/A,,Overcast,80,2012-11-30 15:53:00
11:53 AM,75.0,57.9,55,30.20,10.0,East,18.4,28.8,N/A,,Overcast,80,2012-11-30 16:53:00
12:53 PM,75.0,59.0,57,30.15,10.0,East,19.6,27.6,N/A,,Mostly Cloudy,80,2012-11-30 17:53:00
1:53 PM,78.1,59.0,52,30.12,10.0,ENE,16.1,26.5,N/A,,Scattered Clouds,70,2012-11-30 18:53:00
2:53 PM,75.9,59.0,56,30.13,10.0,East,16.1,23.0,N/A,,Mostly Cloudy,80,2012-11-30 19:53:00
3:53 PM,75.0,57.9,55,30.13,10.0,East,17.3,20.7,N/A,,Overcast,80,2012-11-30 20:53:00
4:53 PM,75.0,60.1,60,30.13,10.0,ENE,11.5,-,N/A,,Mostly Cloudy,70,2012-11-30 21:53:00
5:53 PM,73.0,62.1,68,30.13,10.0,ENE,9.2,-,0.00,Rain,Light Rain,70,2012-11-30 22:53:00
6:53 PM,72.0,66.0,81,30.14,9.0,ENE,15.0,19.6,0.23,Rain,Light Rain,60,2012-11-30 23:53:00
7:53 PM,70.0,66.0,87,30.14,10.0,NE,15.0,-,0.00,Rain,Light Rain,40,2012-12-01 00:53:00
8:53 PM,69.1,66.0,90,30.16,8.0,ENE,13.8,23.0,0.01,Rain,Light Rain,60,2012-12-01 01:53:00
9:53 PM,71.1,64.0,78,30.15,9.0,ENE,16.1,21.9,0.08,Rain,Light Rain,70,2012-12-01 02:53:00
10:53 PM,73.0,63.0,71,30.14,10.0,ENE,12.7,21.9,N/A,,Overcast,70,2012-12-01 03:53:00
11:53 PM,73.0,63.0,71,30.14,10.0,ENE,11.5,23.0,N/A,,Mostly Cloudy,70,2012-12-01 04:53:00